[[{"header":{"parameterUnit":"m.s-1","parameterCategory":2,"la1":30.2991,"la2":30.254,"lo1":-89.0895,"lo2":-89.0444,"dy":0.0017,"dx":0.0017,"nx":28,"ny":28,"refTime":"2023-10-08T03:00:00:Z","depth":"0","parameterNumber":2,"parameterNumberName":"U-component_of_CURRENTS"},"data":[0,0,0,0,0,0,0,0,0,0,0,0,0,0,0,0,0,0,0,0,0,0,0,0,0,0,0,0,0,0,0,0,0,0,0,0,0,0,0,0,0,0,0,0,0,0,0,0,0,0,0,0,0,0,0,0,0,0,0.3178,0.3179,0,0.326,0.3261,0.3261,0.3323,0.3324,0.3325,0.3326,0.3403,0.3404,0.3405,0,0,0,0,0,0,0,0,0,0,0,0,0,0.3113,0.3113,0.3178,0.3179,0.3181,0.326,0.3261,0.3261,0.3323,0.3324,0.3326,0.3327,0.3403,0.3404,0.3405,0,0,0,0,0,0,0,0,0,0,0,0,0,0.3157,0.3113,0.3178,0.3225,0.3231,0.326,0.3261,0.3261,0.3323,0.3324,0.3326,0.3327,0.3402,0.3404,0.3405,0.3384,0,0,0.341,0.3411,0,0,0,0,0,0,0,0,0.3155,0.3159,0.3217,0.3222,0.3228,0.3288,0.3266,0.3304,0.3322,0.3282,0.3326,0.3328,0.3366,0.3371,0.3375,0.3387,0.3391,0.341,0.3411,0.3412,0.3412,0,0,0,0,0,0,0,0.3151,0.3156,0.3205,0.3218,0.3225,0.3256,0.3263,0.3273,0.331,0.3286,0.3292,0.3309,0.3369,0.3374,0.3378,0.3392,0.341,0.3412,0.3413,0.3413,0.3461,0.3461,0,0,0,0,0,0,0.3148,0.3153,0.3203,0.3208,0.3201,0.3256,0.3264,0.3263,0.331,0.3321,0.3307,0.3312,0.337,0.3376,0.3381,0.3424,0.3412,0.3413,0.3414,0.3461,0.3461,0.3461,0,0,0,0,0,0,0.3146,0.3151,0.3199,0.3188,0.3197,0.3256,0.3254,0.3264,0.3284,0.3328,0.3337,0.3321,0.3372,0.3378,0.341,0.3425,0.3414,0.3416,0.346,0.3461,0.3461,0.3468,0,0,0,0,0,0,0.3143,0.3149,0.3137,0.3187,0.3198,0.3219,0.3253,0.3264,0.3294,0.33,0.3342,0.335,0.3373,0.3407,0.3411,0.3427,0.3417,0.346,0.3461,0.3461,0.3467,0.3469,0.347,0,0,0,0,0,0.314,0.3115,0.3135,0.3141,0.3181,0.322,0.3227,0.3271,0.3293,0.3295,0.3335,0.3349,0.3414,0.3409,0.3413,0.343,0.346,0.346,0.3461,0.3467,0.3468,0.347,0,0,0,0,0,0,0.3063,0.3121,0.3144,0.3132,0.3177,0.3232,0.323,0.327,0.3301,0.3305,0.335,0.3361,0.34,0.3405,0.3398,0.3445,0.344,0.3441,0.3442,0.3444,0.3445,0.3441,0.3418,0,0,0,0,0,0.3045,0.3047,0.3111,0.3098,0.3118,0.3175,0.3193,0.3231,0.3272,0.3287,0.3323,0.3358,0.34,0.3415,0.3444,0.3457,0.3472,0.3471,0.3472,0.3473,0.3473,0.3523,0.3529,0.3464,0.3464,0.3464,0,0,0.301,0.3041,0.3041,0.3084,0.3114,0.314,0.3188,0.3214,0.3245,0.3288,0.3321,0.3364,0.3407,0.344,0.3455,0.3448,0.3495,0.3474,0.3475,0.3474,0.3524,0.3531,0.3536,0.3464,0.3464,0.3464,0,0,0.2957,0.2969,0.2968,0.3004,0.3061,0.3101,0.3113,0.3176,0.3212,0.3249,0.3305,0.3358,0.3391,0.3445,0.3472,0.3489,0.3506,0.3495,0.3492,0.3541,0.3547,0.3553,0.3561,0.3567,0.3488,0.3489,0.3489,0,0.2919,0.2928,0.2971,0.2987,0.3017,0.3085,0.3103,0.3142,0.3212,0.3251,0.3254,0.3362,0.3397,0.3475,0.3487,0.3495,0.351,0.3486,0.3544,0.3549,0.3555,0.3563,0.357,0.3489,0.3489,0.3489,0.3489,0,0.2886,0.2895,0.2891,0.2941,0.2971,0.2992,0.3067,0.3104,0.3153,0.321,0.3294,0.335,0.3421,0.3442,0.3469,0.3538,0.3531,0.3547,0.3541,0.3562,0.3568,0.3576,0.3489,0.3489,0.3489,0.3489,0,0,0.2816,0.2864,0.2867,0.289,0.2956,0.2983,0.3028,0.311,0.3161,0.322,0.3291,0.3372,0.3422,0.3457,0.3511,0.3549,0.3599,0.3559,0.3562,0.3568,0.368,0.3588,0.3587,0.363,0.3632,0.3633,0.3662,0,0.2792,0.281,0.2845,0.2868,0.289,0.2962,0.3003,0.3081,0.3155,0.3232,0.332,0.3395,0.3424,0.3467,0.3517,0.3597,0.3621,0.3587,0.3658,0.3659,0.3577,0.3593,0.3493,0.3504,0.3669,0.367,0.3671,0,0.2767,0.2789,0.2805,0.2862,0.2878,0.2901,0.2999,0.305,0.3174,0.3231,0.3326,0.3395,0.3494,0.3497,0.3621,0.3601,0.3633,0.3671,0.3674,0.3591,0.358,0.3513,0.351,0.3451,0.3682,0.3681,0.368,0,0.2727,0.2765,0.2781,0.2798,0.2867,0.2896,0.2944,0.3054,0.3117,0.3242,0.3296,0.3416,0.3484,0.3557,0.3637,0.3637,0.3744,0.3756,0.3694,0.3687,0.3615,0.3598,0.3564,0.3814,0.3814,0.3814,0.3814,0,0.2699,0.2711,0.2763,0.2773,0.2807,0.2866,0.2927,0.3,0.3111,0.3192,0.3298,0.3379,0.3503,0.3583,0.364,0.3683,0.3748,0.3691,0.3695,0.361,0.3593,0.3548,0.3516,0.3815,0.3815,0.3815,0.3814,0,0.2652,0.2683,0.2708,0.2769,0.2788,0.2817,0.2905,0.2958,0.3064,0.3172,0.3209,0.3364,0.3471,0.356,0.3679,0.3676,0.3625,0.372,0.3586,0.3572,0.3432,0.3404,0.3203,0.3109,0.3653,0.3651,0.365,0,0.2625,0.2633,0.2694,0.271,0.2735,0.2786,0.2824,0.2929,0.2992,0.3168,0.3216,0.3343,0.3444,0.3558,0.358,0.3624,0.3551,0.3519,0.3496,0.3399,0.3374,0.3223,0.3149,0.3404,0.34,0.3397,0.3395,0,0.2583,0.261,0.2634,0.2668,0.2701,0.2742,0.2806,0.2843,0.298,0.3068,0.3202,0.3292,0.3408,0.3418,0.3441,0.3462,0.334,0.3456,0.3417,0.3211,0.2987,0.2908,0.3388,0.3369,0.3372,0.3373,0.3375,0.3376,0.2555,0.2561,0.2597,0.2618,0.2653,0.2686,0.2696,0.2775,0.2855,0.2956,0.3104,0.3186,0.3268,0.3304,0.3278,0.3175,0.3151,0.3116,0.3101,0.2965,0.2823,0.3209,0.3155,0.3156,0.3157,0.3158,0.3159,0,0.2511,0.2521,0.2542,0.2564,0.2565,0.2613,0.2667,0.2662,0.2708,0.2829,0.292,0.3002,0.3001,0.3037,0.2997,0.2875,0.2734,0.2792,0.2605,0.2563,0.2985,0.2927,0.2746,0.2746,0.2746,0.2746,0.2746,0.2746,0.2494,0.2484,0.2486,0.2462,0.2472,0.2459,0.2468,0.2476,0.2533,0.2564,0.2603,0.2666,0.2817,0.2831,0.2733,0.2663,0.2472,0.2312,0.23,0.2677,0.2708,0.2737,0.2676,0.2446,0.2445,0.179,0.1785,0.1781]},{"header":{"parameterUnit":"m.s-1","parameterCategory":2,"la1":30.2991,"la2":30.254,"lo1":-89.0895,"lo2":-89.0444,"dy":0.0017,"dx":0.0017,"nx":28,"ny":28,"refTime":"2023-10-08T03:00:00:Z","depth":"0","parameterNumber":3,"parameterNumberName":"V-component_of_CURRENTS"},"data":[0,0,0,0,0,0,0,0,0,0,0,0,0,0,0,0,0,0,0,0,0,0,0,0,0,0,0,0,0,0,0,0,0,0,0,0,0,0,0,0,0,0,0,0,0,0,0,0,0,0,0,0,0,0,0,0,0,0,0.0041,0.004,0,-0.0049,-0.005,-0.0051,-0.0123,-0.0124,-0.0124,-0.0125,-0.0244,-0.0246,-0.0249,0,0,0,0,0,0,0,0,0,0,0,0,0,0.011,0.0109,0.0042,0.004,0.0039,-0.0049,-0.005,-0.0052,-0.0123,-0.0124,-0.0124,-0.0125,-0.0243,-0.0246,-0.0249,0,0,0,0,0,0,0,0,0,0,0,0,0,0.0056,0.0109,0.0042,-0.0007,-0.0012,-0.0049,-0.005,-0.0052,-0.0122,-0.0124,-0.0125,-0.0126,-0.0242,-0.0245,-0.0249,-0.025,0,0,-0.0261,-0.0262,0,0,0,0,0,0,0,0,0.0059,0.0054,0.0001,-0.0004,-0.001,-0.0076,-0.007,-0.012,-0.0122,-0.008,-0.0125,-0.0126,-0.019,-0.0198,-0.0211,-0.0256,-0.0261,-0.0261,-0.0263,-0.0265,-0.0266,0,0,0,0,0,0,0,0.0063,0.0057,0.0006,0.0,-0.0007,-0.004,-0.0048,-0.008,-0.0128,-0.0084,-0.009,-0.01,-0.0193,-0.0208,-0.0215,-0.0263,-0.0261,-0.0264,-0.0266,-0.0268,-0.0319,-0.0318,0,0,0,0,0,0,0.0077,0.0061,0.0009,0.0003,0.0022,-0.004,-0.0049,-0.0053,-0.0127,-0.0139,-0.0099,-0.0103,-0.0201,-0.021,-0.0219,-0.0218,-0.0265,-0.0268,-0.027,-0.032,-0.0319,-0.0318,0,0,0,0,0,0,0.0079,0.0074,0.0012,0.0029,0.0019,-0.004,-0.0044,-0.0055,-0.0068,-0.0138,-0.0151,-0.0101,-0.0202,-0.0214,-0.0241,-0.0223,-0.027,-0.0273,-0.0321,-0.0319,-0.0318,-0.022,0,0,0,0,0,0,0.0082,0.0075,0.008,0.003,0.0018,0.0004,-0.0043,-0.0056,-0.0073,-0.0079,-0.0144,-0.0156,-0.0204,-0.0235,-0.0245,-0.0229,-0.0276,-0.0322,-0.032,-0.0319,-0.0224,-0.0215,-0.0207,0,0,0,0,0,0.0084,0.01,0.0081,0.0075,0.0027,0.0005,-0.0003,-0.005,-0.0071,-0.0067,-0.0114,-0.0154,-0.0232,-0.0237,-0.0249,-0.0234,-0.0323,-0.0321,-0.0319,-0.0228,-0.0217,-0.0208,0,0,0,0,0,0,0.0136,0.0093,0.0071,0.0074,0.0046,-0.0007,-0.0005,-0.0038,-0.0071,-0.0076,-0.0144,-0.0159,-0.018,-0.0216,-0.022,-0.0244,-0.0283,-0.0284,-0.021,-0.0201,-0.0192,-0.0165,-0.0279,0,0,0,0,0,0.0151,0.015,0.0104,0.0108,0.01,0.0051,0.0037,0.0007,-0.0032,-0.0048,-0.0095,-0.0142,-0.0179,-0.0196,-0.0237,-0.0244,-0.0269,-0.0242,-0.0233,-0.0226,-0.0211,-0.0232,-0.0223,-0.0311,-0.0311,-0.0311,0,0,0.017,0.0149,0.0146,0.0119,0.0096,0.0094,0.004,0.0031,0.0028,-0.0054,-0.0066,-0.0117,-0.0176,-0.0192,-0.0203,-0.0219,-0.0213,-0.0223,-0.0217,-0.0206,-0.0229,-0.022,-0.0212,-0.031,-0.031,-0.031,0,0,0.0211,0.0196,0.0206,0.0191,0.0163,0.0136,0.0139,0.0093,0.0074,0.0054,-0.0006,-0.0037,-0.0096,-0.013,-0.0156,-0.0122,-0.0173,-0.014,-0.0071,-0.0091,-0.0083,-0.0077,-0.009,-0.0086,-0.013,-0.013,-0.013,0,0.0234,0.0241,0.0208,0.0216,0.0212,0.0162,0.0177,0.0156,0.0105,0.0098,0.0064,-0.0013,-0.0063,-0.0079,-0.0071,-0.0102,-0.0122,-0.0103,-0.0078,-0.0073,-0.0069,-0.0083,-0.008,-0.0125,-0.0125,-0.0126,-0.0126,0,0.0276,0.0285,0.0297,0.029,0.0286,0.0293,0.026,0.0255,0.0224,0.0191,0.0166,0.0097,0.0053,0.0032,-0.0012,-0.0003,-0.0031,-0.0069,-0.0099,-0.0053,-0.0072,-0.007,-0.0118,-0.012,-0.0121,-0.0122,0,0,0.0316,0.0322,0.0327,0.0339,0.0325,0.0328,0.034,0.0331,0.0343,0.029,0.0296,0.0229,0.0189,0.0158,0.01,0.0084,0.0097,0.0031,0.0028,0.0027,0.006,0.0044,0.0044,0.006,0.006,0.0061,0.0038,0,0.0356,0.0394,0.0384,0.0424,0.0443,0.0417,0.0434,0.0422,0.0401,0.0397,0.0333,0.0309,0.0238,0.0219,0.0195,0.0116,0.0105,0.0107,0.0008,0.0006,-0.0008,0.0046,0.008,0.0062,0.0039,0.0039,0.0039,0,0.0399,0.0419,0.0466,0.0495,0.0502,0.0521,0.0546,0.0553,0.0539,0.0522,0.0492,0.043,0.0395,0.0327,0.024,0.0244,0.017,0.0109,0.0105,0.0059,-0.0007,0.0009,0.0065,-0.0028,0.0041,0.0041,0.0041,0,0.0444,0.0478,0.0522,0.0531,0.0553,0.0577,0.0591,0.0594,0.0616,0.0603,0.061,0.0546,0.052,0.0423,0.0292,0.0267,0.0198,0.0142,0.0061,0.0059,0.0054,0.005,0.0017,0.0094,0.0094,0.0094,0.0094,0,0.0492,0.0525,0.055,0.0574,0.0637,0.0633,0.0696,0.0699,0.0718,0.0767,0.0679,0.07,0.0543,0.0472,0.0343,0.022,0.0236,0.0094,0.0059,0.0089,0.0089,-0.0023,-0.011,0.0093,0.0093,0.0094,0.0094,0,0.0536,0.0548,0.0601,0.064,0.0661,0.0708,0.0769,0.0812,0.0818,0.088,0.0879,0.0823,0.0741,0.0576,0.0428,0.0297,0.0107,0.0117,0.0167,0.0139,-0.0032,-0.0116,-0.0207,-0.0262,0.0031,0.0031,0.003,0,0.0561,0.0594,0.0656,0.0697,0.0721,0.0787,0.0837,0.0864,0.0919,0.0968,0.1007,0.0944,0.0933,0.0703,0.0465,0.0251,0.0115,0.0119,0.0073,-0.0014,-0.0133,-0.0186,-0.0229,0.0106,0.0107,0.0107,0.0107,0,0.0613,0.0634,0.0677,0.0761,0.0824,0.0901,0.0978,0.1038,0.1089,0.116,0.124,0.1237,0.1021,0.0837,0.0522,0.0349,0.0052,0.0116,0.0016,-0.0075,-0.0124,-0.0202,0.0092,0.0109,0.0109,0.0109,0.0109,0.0109,0.065,0.0693,0.0751,0.0833,0.0908,0.101,0.1087,0.1188,0.1311,0.1436,0.1424,0.1477,0.1185,0.077,0.0516,0.0099,0.0061,-0.0022,-0.0114,-0.0156,-0.0212,0.0093,0.007,0.0069,0.0069,0.0069,0.0069,0,0.0694,0.0742,0.0818,0.0916,0.1004,0.1037,0.1177,0.1274,0.1448,0.1587,0.1676,0.1605,0.1227,0.0817,0.0242,-0.0057,-0.0174,-0.0225,-0.0283,-0.0318,-0.0041,-0.0039,-0.0073,-0.0073,-0.0072,-0.0072,-0.0072,-0.0072,0.0718,0.079,0.0828,0.0977,0.1051,0.118,0.1268,0.1438,0.1576,0.1784,0.1869,0.1882,0.1612,0.0588,-0.0099,-0.0284,-0.0473,-0.052,-0.0637,-0.0439,-0.0426,-0.0414,-0.0429,-0.0543,-0.0544,-0.084,-0.0843,-0.0846]}],[{"header":{"parameterUnit":"m.s-1","parameterCategory":2,"la1":30.2991,"la2":30.254,"lo1":-89.0895,"lo2":-89.0444,"dy":0.0017,"dx":0.0017,"nx":28,"ny":28,"refTime":"2023-10-08T03:00:00:Z","depth":"2","parameterNumber":2,"parameterNumberName":"U-component_of_CURRENTS"},"data":[0,0,0,0,0,0,0,0,0,0,0,0,0,0,0,0,0,0,0,0,0,0,0,0,0,0,0,0,0,0,0,0,0,0,0,0,0,0,0,0,0,0,0,0,0,0,0,0,0,0,0,0,0,0,0,0,0,0,0.2423,0.2424,0,0.2469,0.2469,0.247,0.2516,0.2516,0.2517,0.2518,0.2571,0.2571,0.2572,0,0,0,0,0,0,0,0,0,0,0,0,0,0.2403,0.2402,0.2423,0.2424,0.2424,0.2469,0.247,0.247,0.2516,0.2516,0.2517,0.2518,0.257,0.2571,0.2572,0,0,0,0,0,0,0,0,0,0,0,0,0,0.2426,0.2402,0.2423,0.2453,0.2456,0.2469,0.247,0.247,0.2515,0.2516,0.2517,0.2518,0.257,0.2571,0.2573,0.2561,0,0,0.2576,0.2577,0,0,0,0,0,0,0,0,0.2424,0.2427,0.2448,0.2451,0.2454,0.2488,0.2482,0.2501,0.2515,0.2492,0.2518,0.2519,0.2543,0.2547,0.2553,0.2564,0.2566,0.2576,0.2577,0.2578,0.2578,0,0,0,0,0,0,0,0.2423,0.2425,0.2441,0.2448,0.2452,0.2473,0.2477,0.2486,0.2512,0.2495,0.2498,0.2503,0.2545,0.2551,0.2554,0.2567,0.2576,0.2577,0.2578,0.2579,0.2659,0.2661,0,0,0,0,0,0,0.2415,0.2423,0.244,0.2443,0.2442,0.2472,0.2477,0.2476,0.2512,0.2518,0.2502,0.2505,0.2549,0.2553,0.2556,0.2603,0.2578,0.2579,0.258,0.2658,0.266,0.2661,0,0,0,0,0,0,0.2414,0.2416,0.2438,0.2435,0.2439,0.2472,0.247,0.2476,0.2497,0.2518,0.2524,0.2518,0.255,0.2555,0.2577,0.2604,0.2579,0.2581,0.2656,0.2658,0.266,0.266,0,0,0,0,0,0,0.2413,0.2415,0.242,0.2434,0.2439,0.2461,0.2469,0.2476,0.2498,0.2502,0.2533,0.2538,0.2551,0.2575,0.2578,0.2605,0.2581,0.2654,0.2657,0.266,0.2658,0.2662,0.2665,0,0,0,0,0,0.2412,0.2415,0.2419,0.2422,0.2441,0.2462,0.2467,0.2493,0.2498,0.2513,0.2529,0.2538,0.2595,0.2576,0.258,0.2608,0.2653,0.2656,0.2659,0.2657,0.2661,0.2665,0,0,0,0,0,0,0.241,0.2421,0.2425,0.2432,0.2451,0.247,0.2486,0.2496,0.2519,0.2526,0.254,0.2547,0.259,0.2593,0.2572,0.2642,0.2632,0.2636,0.2629,0.2633,0.2636,0.2647,0.2583,0,0,0,0,0,0.2408,0.2412,0.2429,0.2435,0.2445,0.2464,0.2477,0.2494,0.2512,0.2525,0.2542,0.2569,0.2602,0.2611,0.2644,0.2659,0.267,0.2686,0.269,0.2692,0.2706,0.2741,0.2748,0.2671,0.2671,0.2671,0,0,0.2405,0.2414,0.2415,0.2435,0.245,0.2466,0.2475,0.25,0.2517,0.2525,0.2555,0.2585,0.2614,0.265,0.2668,0.2653,0.2718,0.2696,0.2698,0.2711,0.2745,0.2752,0.2759,0.2673,0.2673,0.2673,0,0,0.2401,0.2413,0.2416,0.2434,0.2462,0.2477,0.2485,0.251,0.2531,0.2556,0.258,0.2621,0.2651,0.2684,0.2702,0.274,0.2745,0.2754,0.2763,0.2796,0.2803,0.2808,0.2814,0.282,0.2741,0.2741,0.2741,0,0.2399,0.2404,0.2422,0.2435,0.2452,0.248,0.2494,0.2517,0.2547,0.2568,0.2573,0.2652,0.2674,0.2725,0.2745,0.2748,0.2756,0.2739,0.2799,0.2805,0.2811,0.2816,0.2823,0.2742,0.2742,0.2742,0.2742,0,0.2396,0.2408,0.2415,0.2437,0.246,0.248,0.2512,0.2541,0.2567,0.259,0.2655,0.2689,0.2737,0.2754,0.2759,0.2818,0.2805,0.2807,0.2783,0.2818,0.2821,0.2828,0.2742,0.2742,0.2742,0.2742,0,0,0.2366,0.2404,0.2407,0.2421,0.2466,0.2481,0.2521,0.2565,0.2597,0.2639,0.2682,0.2748,0.2774,0.2798,0.2817,0.2842,0.2883,0.2837,0.2839,0.2832,0.2937,0.2886,0.2888,0.2889,0.289,0.2892,0.2914,0,0.236,0.2378,0.2404,0.2429,0.2444,0.2491,0.2524,0.2572,0.2619,0.2668,0.2721,0.2777,0.2785,0.2816,0.2845,0.2893,0.2905,0.2876,0.2914,0.2916,0.2857,0.2897,0.2672,0.2671,0.2921,0.2922,0.2923,0,0.2346,0.2363,0.2384,0.2429,0.2441,0.2466,0.2537,0.2574,0.2654,0.2695,0.276,0.28,0.2869,0.2862,0.2943,0.2922,0.2931,0.295,0.2951,0.2913,0.2879,0.2682,0.2675,0.2935,0.2934,0.2933,0.2933,0,0.2311,0.2349,0.2365,0.238,0.2436,0.2465,0.2505,0.2584,0.2628,0.2721,0.2766,0.2842,0.2897,0.2934,0.2981,0.2966,0.3053,0.3033,0.2987,0.2982,0.2806,0.2783,0.3074,0.3074,0.3074,0.3074,0.3074,0,0.2288,0.2301,0.2352,0.236,0.2392,0.2445,0.2498,0.2557,0.2644,0.27,0.2778,0.2841,0.2922,0.2978,0.2995,0.3022,0.3065,0.3003,0.2995,0.2798,0.2775,0.3022,0.3015,0.3074,0.3074,0.3074,0.3074,0,0.2244,0.2276,0.2299,0.2356,0.2375,0.2403,0.2487,0.2525,0.2622,0.2701,0.2734,0.2858,0.2945,0.2997,0.307,0.3044,0.307,0.3057,0.2811,0.2774,0.2964,0.2957,0.3007,0.3005,0.3004,0.3003,0.3002,0,0.2221,0.2228,0.2285,0.2298,0.2325,0.2374,0.2406,0.2505,0.2551,0.2708,0.2737,0.286,0.2923,0.301,0.2998,0.3003,0.3061,0.2782,0.2719,0.2975,0.2963,0.2958,0.2953,0.2472,0.2467,0.2463,0.2459,0,0.218,0.2206,0.2226,0.2253,0.2283,0.2312,0.2369,0.2401,0.2522,0.2587,0.269,0.2759,0.2862,0.2787,0.2807,0.2779,0.2766,0.2698,0.3036,0.2535,0.2476,0.2462,0.2474,0.2422,0.2426,0.2429,0.2431,0.2432,0.2155,0.2155,0.2183,0.2197,0.2225,0.2235,0.2226,0.2291,0.2342,0.2415,0.2557,0.2578,0.262,0.2551,0.2472,0.2408,0.26,0.247,0.248,0.2496,0.2442,0.2385,0.2302,0.2305,0.2307,0.231,0.2312,0,0.2108,0.2109,0.212,0.2123,0.2104,0.2154,0.2177,0.2141,0.2146,0.2252,0.2311,0.2157,0.2121,0.2157,0.2007,0.2003,0.1957,0.1916,0.1832,0.1873,0.1908,0.182,0.1518,0.1515,0.1512,0.151,0,0,0.2088,0.2062,0.2052,0.1992,0.1992,0.1931,0.1918,0.1889,0.1914,0.19,0.1896,0.2061,0.2122,0.18,0.1755,0.1609,0.1724,0.1546,0.2192,0.2137,0.2168,0.2247,0.2162,0,0,0,0,0]},{"header":{"parameterUnit":"m.s-1","parameterCategory":2,"la1":30.2991,"la2":30.254,"lo1":-89.0895,"lo2":-89.0444,"dy":0.0017,"dx":0.0017,"nx":28,"ny":28,"refTime":"2023-10-08T03:00:00:Z","depth":"2","parameterNumber":3,"parameterNumberName":"V-component_of_CURRENTS"},"data":[0,0,0,0,0,0,0,0,0,0,0,0,0,0,0,0,0,0,0,0,0,0,0,0,0,0,0,0,0,0,0,0,0,0,0,0,0,0,0,0,0,0,0,0,0,0,0,0,0,0,0,0,0,0,0,0,0,0,0.0256,0.0256,0,0.0196,0.0195,0.0194,0.0153,0.0153,0.0153,0.0153,0.0082,0.008,0.0078,0,0,0,0,0,0,0,0,0,0,0,0,0,0.0289,0.0288,0.0256,0.0256,0.0255,0.0196,0.0195,0.0194,0.0153,0.0153,0.0153,0.0152,0.0082,0.008,0.0078,0,0,0,0,0,0,0,0,0,0,0,0,0,0.0255,0.0288,0.0256,0.0228,0.0225,0.0196,0.0195,0.0194,0.0153,0.0153,0.0153,0.0152,0.0083,0.008,0.0078,0.0068,0,0,0.007,0.0069,0,0,0,0,0,0,0,0,0.0257,0.0254,0.0233,0.023,0.0227,0.0183,0.018,0.0152,0.0153,0.0179,0.0153,0.0152,0.0115,0.011,0.0098,0.0065,0.0062,0.007,0.0068,0.0067,0.0067,0,0,0,0,0,0,0,0.026,0.0256,0.0231,0.0232,0.0229,0.0202,0.0198,0.0175,0.0149,0.0177,0.0174,0.0169,0.0113,0.0101,0.0096,0.0061,0.007,0.0068,0.0066,0.0065,0.0018,0.0018,0,0,0,0,0,0,0.0272,0.0259,0.0233,0.023,0.0243,0.0202,0.0197,0.0196,0.0149,0.0142,0.017,0.0168,0.0105,0.0099,0.0093,0.0094,0.0067,0.0065,0.0063,0.0018,0.0018,0.0018,0,0,0,0,0,0,0.0273,0.0271,0.0236,0.0243,0.0237,0.0203,0.0202,0.0195,0.0185,0.0144,0.0136,0.0167,0.0105,0.0097,0.008,0.009,0.0064,0.0061,0.0017,0.0018,0.0018,0.0085,0,0,0,0,0,0,0.0274,0.0271,0.0274,0.0244,0.0237,0.0226,0.0202,0.0194,0.0183,0.018,0.0139,0.0132,0.0104,0.0085,0.0078,0.0086,0.0059,0.0017,0.0017,0.0018,0.0082,0.0088,0.0092,0,0,0,0,0,0.0276,0.0281,0.0275,0.0271,0.0242,0.0226,0.0221,0.0194,0.0183,0.0183,0.0157,0.0133,0.0083,0.0083,0.0075,0.0083,0.0017,0.0017,0.0018,0.008,0.0087,0.0092,0,0,0,0,0,0,0.0295,0.0277,0.0269,0.0268,0.0253,0.022,0.0216,0.02,0.0178,0.0176,0.0138,0.0129,0.0115,0.0091,0.0092,0.007,0.0045,0.0044,0.0095,0.0101,0.0106,0.0125,0.0057,0,0,0,0,0,0.0302,0.0303,0.0281,0.0282,0.0277,0.0249,0.0239,0.0224,0.0201,0.0191,0.0163,0.0134,0.011,0.0101,0.0072,0.0066,0.0041,0.0064,0.0069,0.0073,0.0083,0.0057,0.006,0.002,0.002,0.002,0,0,0.0309,0.03,0.03,0.0287,0.0272,0.0273,0.0242,0.0234,0.0236,0.0187,0.0181,0.0147,0.011,0.0099,0.0091,0.0083,0.007,0.0074,0.0078,0.0086,0.0058,0.0062,0.0065,0.0021,0.0021,0.0021,0,0,0.0327,0.0318,0.0327,0.032,0.0306,0.0292,0.0294,0.0267,0.0258,0.0247,0.0212,0.0191,0.0153,0.0133,0.0117,0.0133,0.0093,0.0119,0.0165,0.014,0.0143,0.0146,0.0117,0.0117,0.0127,0.0127,0.0127,0,0.0336,0.0347,0.0327,0.0335,0.0337,0.0306,0.032,0.0306,0.0277,0.0277,0.0254,0.0204,0.0171,0.0164,0.0168,0.0146,0.0121,0.0149,0.0147,0.0149,0.0151,0.0121,0.012,0.0131,0.013,0.013,0.013,0,0.0362,0.0371,0.0377,0.0382,0.0381,0.0387,0.0371,0.0367,0.0351,0.0335,0.0319,0.0272,0.0246,0.0229,0.0203,0.02,0.0176,0.0153,0.0137,0.0159,0.0126,0.0124,0.0135,0.0134,0.0133,0.0132,0,0,0.0383,0.0394,0.0398,0.0415,0.0409,0.0414,0.0423,0.0426,0.0441,0.0401,0.0413,0.0364,0.0336,0.0317,0.0277,0.0256,0.0242,0.0216,0.0213,0.0196,0.0182,0.0172,0.0167,0.0218,0.0218,0.0218,0.0154,0,0.0413,0.0446,0.0442,0.0479,0.0497,0.0482,0.0498,0.0495,0.0484,0.0485,0.0438,0.0425,0.0371,0.036,0.0331,0.0265,0.0238,0.0261,0.0156,0.0153,0.0148,0.0165,0.0182,0.0127,0.0151,0.0151,0.0151,0,0.0446,0.0466,0.0508,0.0541,0.0548,0.0566,0.0595,0.0604,0.0596,0.0587,0.0563,0.0517,0.0482,0.0429,0.0335,0.0351,0.0275,0.0218,0.0214,0.0182,0.0139,0.0107,0.0121,0.0146,0.0146,0.0147,0.0147,0,0.0482,0.0516,0.0557,0.0566,0.0592,0.0616,0.0631,0.0638,0.0663,0.0652,0.0659,0.06,0.0579,0.0479,0.0358,0.0345,0.025,0.0215,0.0132,0.0129,0.0113,0.011,0.0146,0.0146,0.0146,0.0147,0.0147,0,0.0522,0.0554,0.0581,0.0604,0.0665,0.0664,0.0725,0.0729,0.0748,0.0793,0.0715,0.0729,0.0591,0.0514,0.039,0.0262,0.0271,0.0147,0.0117,0.0136,0.0135,0.0126,0.0124,0.0144,0.0145,0.0145,0.0146,0,0.0559,0.0572,0.0623,0.0664,0.0685,0.073,0.0792,0.0832,0.0836,0.089,0.0888,0.0832,0.074,0.0586,0.0434,0.0316,0.0183,0.013,0.0161,0.0137,0.0068,0.007,0.0032,0.0032,0.0031,0.003,0.003,0,0.058,0.0611,0.0674,0.0713,0.0737,0.0802,0.0852,0.088,0.0932,0.096,0.0994,0.092,0.089,0.0654,0.0439,0.0224,0.0187,0.0087,0.0065,0.0084,0.0058,0.0062,0.0065,0.0062,0.0062,0.0062,0.0061,0,0.0625,0.0647,0.0689,0.0771,0.0833,0.0909,0.0983,0.1039,0.1085,0.1128,0.1175,0.115,0.0935,0.0734,0.0435,0.0281,0.0123,0.0077,0.0091,0.0094,0.0108,0.0084,0.0087,0.006,0.006,0.006,0.006,0.0061,0.066,0.07,0.0757,0.0836,0.091,0.1009,0.1085,0.1167,0.1265,0.1338,0.1314,0.1276,0.1039,0.0665,0.0404,0.0119,0.0132,0.0022,0.0023,0.0025,0.0046,0.0059,0.0005,0.0005,0.0005,0.0005,0.0004,0,0.07,0.0746,0.0818,0.0914,0.0998,0.1035,0.1168,0.1247,0.1374,0.1428,0.1465,0.1233,0.0994,0.0704,0.0295,0.0056,0.0029,-0.0035,-0.0011,-0.0007,-0.0005,0.0015,-0.0035,-0.0036,-0.0036,-0.0037,0,0,0.0723,0.0791,0.0826,0.0968,0.1042,0.1173,0.1258,0.1375,0.1448,0.1506,0.1482,0.1426,0.1081,0.0779,0.045,0.021,0.0153,0.0153,0.0211,0.0284,0.0289,0.0054,0.0093,0,0,0,0,0]}],[{"header":{"parameterUnit":"m.s-1","parameterCategory":2,"la1":30.2991,"la2":30.254,"lo1":-89.0895,"lo2":-89.0444,"dy":0.0017,"dx":0.0017,"nx":28,"ny":28,"refTime":"2023-10-08T03:00:00:Z","depth":"4","parameterNumber":2,"parameterNumberName":"U-component_of_CURRENTS"},"data":[0,0,0,0,0,0,0,0,0,0,0,0,0,0,0,0,0,0,0,0,0,0,0,0,0,0,0,0,0,0,0,0,0,0,0,0,0,0,0,0,0,0,0,0,0,0,0,0,0,0,0,0,0,0,0,0,0,0,0.1494,0.1494,0,0.1525,0.1525,0.1525,0.1567,0.1568,0.1569,0.1569,0.1565,0.1564,0.1563,0,0,0,0,0,0,0,0,0,0,0,0,0,0.1459,0.1459,0.1494,0.1494,0.1495,0.1525,0.1525,0.1525,0.1567,0.1568,0.1569,0.157,0.1565,0.1564,0.1563,0,0,0,0,0,0,0,0,0,0,0,0,0,0.1479,0.1459,0.1494,0.152,0.1523,0.1525,0.1525,0.1525,0.1567,0.1568,0.1569,0.157,0.1566,0.1564,0.1563,0.153,0,0,0.1559,0.1559,0,0,0,0,0,0,0,0,0.1478,0.148,0.1516,0.1518,0.1522,0.1544,0.1511,0.1526,0.1566,0.1549,0.1569,0.1571,0.1555,0.1555,0.1556,0.153,0.153,0.1559,0.1558,0.1558,0.1557,0,0,0,0,0,0,0,0.1476,0.1479,0.1505,0.1516,0.152,0.1526,0.1531,0.1514,0.1543,0.155,0.1554,0.1559,0.1556,0.1557,0.1556,0.153,0.1559,0.1558,0.1557,0.1557,0.1568,0.1569,0,0,0,0,0,0,0.1474,0.1477,0.1504,0.1506,0.1504,0.1526,0.1531,0.1535,0.1544,0.1547,0.1558,0.1561,0.1559,0.1558,0.1556,0.1608,0.1558,0.1556,0.1556,0.1567,0.1569,0.157,0,0,0,0,0,0,0.1473,0.1476,0.1503,0.1494,0.1498,0.1526,0.153,0.1535,0.1571,0.155,0.1553,0.1593,0.156,0.1558,0.1578,0.1605,0.1556,0.1555,0.1566,0.1568,0.1569,0.1653,0,0,0,0,0,0,0.1472,0.1476,0.1498,0.1493,0.1498,0.1527,0.1529,0.1535,0.1571,0.1576,0.158,0.158,0.1561,0.158,0.1577,0.1602,0.1554,0.1565,0.1567,0.1569,0.1649,0.1657,0.1664,0,0,0,0,0,0.1471,0.149,0.1498,0.1503,0.1521,0.1528,0.1532,0.1554,0.1572,0.1591,0.1602,0.1581,0.1591,0.158,0.1576,0.1601,0.1564,0.1566,0.1569,0.1645,0.1655,0.1664,0,0,0,0,0,0,0.1491,0.1496,0.1505,0.1528,0.1539,0.1536,0.1564,0.1573,0.1596,0.1615,0.1594,0.1594,0.1624,0.1598,0.1587,0.161,0.1574,0.1575,0.1633,0.1643,0.165,0.1661,0.1553,0,0,0,0,0,0.1503,0.1521,0.1522,0.1546,0.1555,0.1566,0.1581,0.1595,0.1605,0.1619,0.1619,0.1621,0.1623,0.1625,0.1622,0.1628,0.1624,0.1641,0.1649,0.1656,0.1662,0.1688,0.1699,0.1578,0.1578,0.1578,0,0,0.1517,0.1525,0.1536,0.1552,0.1567,0.1581,0.1579,0.1613,0.1634,0.1611,0.1652,0.1654,0.1634,0.1653,0.1662,0.1638,0.169,0.1659,0.1665,0.1667,0.1692,0.1703,0.1714,0.158,0.1579,0.1579,0,0,0.1537,0.1564,0.1579,0.1593,0.1621,0.1624,0.1641,0.1656,0.1679,0.1707,0.1703,0.1727,0.1721,0.1718,0.1712,0.1757,0.1738,0.1754,0.1795,0.1821,0.1831,0.184,0.1861,0.1871,0.175,0.175,0.175,0,0.1558,0.1572,0.1587,0.1605,0.1624,0.1646,0.1665,0.1685,0.1709,0.1728,0.1736,0.1763,0.1753,0.1771,0.1791,0.1777,0.1786,0.1762,0.1833,0.1841,0.1849,0.1868,0.1878,0.1754,0.1754,0.1753,0.1753,0,0.1571,0.1601,0.1617,0.1643,0.1666,0.1693,0.1714,0.175,0.1782,0.1796,0.1845,0.1844,0.1859,0.1859,0.1839,0.1884,0.1872,0.1849,0.1812,0.1867,0.1883,0.1892,0.176,0.1759,0.1758,0.1757,0,0,0.1561,0.1614,0.1623,0.1644,0.1692,0.1705,0.1756,0.1791,0.183,0.1868,0.1911,0.1932,0.195,0.1944,0.1931,0.1947,0.2016,0.1926,0.1925,0.1952,0.2078,0.1958,0.1956,0.2009,0.2011,0.2012,0.2071,0,0.1567,0.1603,0.1633,0.1678,0.1696,0.1743,0.1781,0.1827,0.1872,0.1919,0.1946,0.1984,0.1975,0.1996,0.2018,0.2016,0.2042,0.2002,0.2015,0.2015,0.1907,0.1963,0.2018,0.2077,0.208,0.2081,0.2082,0,0.1559,0.1586,0.163,0.169,0.1706,0.1745,0.1819,0.1859,0.1932,0.1971,0.2029,0.2049,0.2097,0.2076,0.2128,0.2106,0.2107,0.21,0.2102,0.1965,0.1912,0.2007,0.2098,0.2097,0.2096,0.2095,0.2094,0,0.1519,0.1581,0.1619,0.164,0.1712,0.1757,0.1806,0.1883,0.1924,0.2017,0.206,0.2119,0.2163,0.2181,0.2193,0.2169,0.2238,0.2197,0.2093,0.2084,0.2138,0.2127,0.2237,0.2237,0.2237,0.2237,0.2237,0,0.149,0.1524,0.1612,0.163,0.1686,0.175,0.1821,0.1881,0.1967,0.2015,0.2094,0.2136,0.2194,0.2235,0.2227,0.2197,0.2277,0.2112,0.2094,0.2172,0.2164,0.2145,0.2134,0.2239,0.2239,0.2238,0.2238,0,0.1435,0.1492,0.1541,0.1634,0.1669,0.1715,0.1823,0.1861,0.1966,0.2034,0.2069,0.2172,0.2231,0.2271,0.2306,0.2232,0.2214,0.2183,0.2285,0.2269,0.2033,0.2025,0.2059,0.2056,0.2053,0.205,0.2048,0,0.1405,0.1427,0.1535,0.1567,0.1618,0.1696,0.1739,0.185,0.189,0.2036,0.2052,0.2161,0.2213,0.2171,0.2228,0.2217,0.2184,0.2155,0.207,0.2037,0.2017,0.2014,0.201,0.2043,0.2042,0.2041,0.204,0,0.1348,0.1406,0.1446,0.1512,0.1571,0.1615,0.1694,0.1709,0.1831,0.1944,0.1978,0.2002,0.2069,0.2092,0.211,0.2092,0.2157,0.2121,0.2126,0.2046,0.2017,0.1999,0.2,0.203,0.2031,0.2032,0.2033,0,0.1318,0.133,0.1394,0.1435,0.15,0.151,0.1563,0.1603,0.1655,0.1811,0.1826,0.1942,0.2054,0.203,0.2046,0.2026,0.1977,0.1878,0.1894,0.1907,0.1828,0.1768,0.1697,0,0,0,0,0,0.1275,0.1271,0.1305,0.1335,0.139,0.1424,0.1513,0.1567,0.1689,0.1663,0.1734,0.1786,0.1813,0.1879,0.1824,0.1981,0.1988,0.1907,0.1884,0.1969,0.1982,0.1902,0,0,0,0,0,0,0.1246,0.1277,0.127,0.1238,0.1237,0.1278,0.1329,0.1413,0.1403,0.154,0.1568,0.1668,0.1729,0.1825,0.1788,0.1806,0.1749,0.1984,0.1979,0.1962,0.1974,0.1984,0.1906,0,0,0,0,0]},{"header":{"parameterUnit":"m.s-1","parameterCategory":2,"la1":30.2991,"la2":30.254,"lo1":-89.0895,"lo2":-89.0444,"dy":0.0017,"dx":0.0017,"nx":28,"ny":28,"refTime":"2023-10-08T03:00:00:Z","depth":"4","parameterNumber":3,"parameterNumberName":"V-component_of_CURRENTS"},"data":[0,0,0,0,0,0,0,0,0,0,0,0,0,0,0,0,0,0,0,0,0,0,0,0,0,0,0,0,0,0,0,0,0,0,0,0,0,0,0,0,0,0,0,0,0,0,0,0,0,0,0,0,0,0,0,0,0,0,0.0249,0.0248,0,0.0219,0.0219,0.0219,0.0209,0.0209,0.021,0.021,0.0187,0.0186,0.0185,0,0,0,0,0,0,0,0,0,0,0,0,0,0.0263,0.0263,0.0249,0.0248,0.0248,0.0219,0.0219,0.0218,0.0209,0.0209,0.021,0.021,0.0187,0.0186,0.0185,0,0,0,0,0,0,0,0,0,0,0,0,0,0.0247,0.0263,0.0249,0.024,0.0239,0.0219,0.0219,0.0218,0.0209,0.0209,0.021,0.021,0.0187,0.0186,0.0185,0.0173,0,0,0.0181,0.0181,0,0,0,0,0,0,0,0,0.0248,0.0247,0.0242,0.0241,0.024,0.0218,0.0215,0.0204,0.0209,0.022,0.021,0.021,0.0198,0.0196,0.0189,0.0172,0.0171,0.0181,0.0181,0.018,0.018,0,0,0,0,0,0,0,0.025,0.0248,0.0237,0.0241,0.024,0.0226,0.0224,0.0213,0.0208,0.0219,0.0219,0.0216,0.0197,0.019,0.0189,0.0171,0.0181,0.018,0.018,0.0179,0.0159,0.016,0,0,0,0,0,0,0.0255,0.0249,0.0238,0.0236,0.0245,0.0226,0.0224,0.0225,0.0208,0.0206,0.0215,0.0215,0.0192,0.019,0.0188,0.0195,0.018,0.0179,0.0178,0.0159,0.0159,0.016,0,0,0,0,0,0,0.0256,0.0255,0.0239,0.0242,0.0239,0.0226,0.0226,0.0224,0.0224,0.0205,0.0203,0.0218,0.0192,0.0189,0.0185,0.0193,0.0178,0.0177,0.0159,0.0159,0.016,0.0195,0,0,0,0,0,0,0.0256,0.0255,0.0259,0.0242,0.0239,0.0235,0.0226,0.0223,0.0221,0.0221,0.0207,0.0204,0.0192,0.0187,0.0184,0.0191,0.0177,0.0159,0.0159,0.0159,0.0193,0.0196,0.0198,0,0,0,0,0,0.0257,0.0261,0.026,0.0259,0.0245,0.0235,0.0233,0.0223,0.0221,0.0223,0.0214,0.0205,0.0187,0.0186,0.0183,0.019,0.0159,0.0159,0.0159,0.0192,0.0195,0.0198,0,0,0,0,0,0,0.0268,0.026,0.0258,0.026,0.0253,0.0234,0.0235,0.0228,0.0221,0.0224,0.0207,0.0204,0.0202,0.019,0.019,0.0184,0.0171,0.0171,0.0197,0.02,0.0203,0.0216,0.0176,0,0,0,0,0,0.0273,0.0277,0.0265,0.0267,0.0266,0.0252,0.0248,0.0242,0.0232,0.023,0.0219,0.0208,0.0199,0.0196,0.0184,0.0182,0.0162,0.0184,0.0187,0.0189,0.0197,0.0167,0.0168,0.0161,0.0161,0.0161,0,0,0.0277,0.0274,0.0276,0.027,0.0264,0.0267,0.025,0.0248,0.0253,0.0228,0.0232,0.0216,0.0199,0.0197,0.0195,0.019,0.018,0.0189,0.0192,0.0199,0.0168,0.0168,0.0169,0.0161,0.0161,0.0161,0,0,0.0288,0.0287,0.0295,0.0292,0.0288,0.0281,0.0283,0.027,0.0268,0.0267,0.025,0.024,0.0227,0.0216,0.0209,0.0219,0.0193,0.0214,0.0241,0.0212,0.0212,0.0212,0.0186,0.0184,0.0218,0.0218,0.0218,0,0.0294,0.0305,0.0295,0.0302,0.0307,0.0291,0.0303,0.0296,0.0283,0.0286,0.0276,0.0254,0.0237,0.0235,0.0238,0.0225,0.0205,0.0232,0.0216,0.0215,0.0215,0.0188,0.0184,0.022,0.0219,0.0219,0.0219,0,0.0311,0.0322,0.0327,0.0336,0.0338,0.0345,0.0338,0.0339,0.0335,0.0327,0.0323,0.0294,0.0285,0.0273,0.026,0.0251,0.0236,0.022,0.0209,0.0218,0.0188,0.0184,0.0222,0.0221,0.0221,0.022,0,0,0.032,0.0337,0.0341,0.0358,0.036,0.0366,0.0376,0.0383,0.0397,0.0374,0.0386,0.0358,0.0341,0.0332,0.0306,0.028,0.0254,0.0254,0.0252,0.0231,0.0191,0.0181,0.0175,0.0234,0.0233,0.0233,0.0171,0,0.0341,0.0369,0.0371,0.0404,0.042,0.0417,0.0432,0.0435,0.0432,0.0436,0.0403,0.0401,0.0364,0.0362,0.0329,0.0276,0.0246,0.0273,0.0183,0.0181,0.0173,0.0171,0.0232,0.0168,0.0167,0.0166,0.0165,0,0.0361,0.038,0.0417,0.0452,0.046,0.0479,0.0509,0.0519,0.0516,0.0514,0.0498,0.0469,0.0435,0.0399,0.0311,0.0329,0.0267,0.0218,0.0214,0.0192,0.0164,0.0157,0.0158,0.0158,0.0159,0.016,0.016,0,0.0381,0.0415,0.0452,0.0462,0.0493,0.0517,0.0537,0.0547,0.057,0.0565,0.0574,0.0523,0.0508,0.0419,0.032,0.0315,0.0215,0.0194,0.0123,0.0122,0.0134,0.0134,0.0127,0.0127,0.0127,0.0127,0.0127,0,0.0403,0.0433,0.047,0.049,0.0546,0.0555,0.061,0.0619,0.0638,0.0671,0.0619,0.0623,0.0512,0.0441,0.0338,0.0223,0.0226,0.013,0.0106,0.0149,0.0152,0.013,0.0132,0.0125,0.0125,0.0126,0.0126,0,0.0419,0.044,0.0488,0.0536,0.0559,0.0601,0.0666,0.07,0.071,0.0749,0.0751,0.0701,0.0613,0.0488,0.035,0.0257,0.014,0.0095,0.0158,0.0137,0.0059,0.0063,0.0012,0.0011,0.001,0.001,0.0009,0,0.0429,0.0456,0.0526,0.0564,0.0593,0.0657,0.0704,0.0738,0.0776,0.0796,0.0815,0.0749,0.0698,0.0498,0.0362,0.0163,0.013,0.0061,0.0052,0.0067,0.0048,0.0053,0.0057,0.0008,0.0008,0.0008,0.0008,0,0.045,0.0479,0.0519,0.0598,0.0659,0.073,0.0797,0.0829,0.087,0.0878,0.0867,0.0767,0.067,0.051,0.0358,0.0213,0.0101,0.0053,0.0053,0.0044,0.0061,0.0045,0.005,0.0005,0.0005,0.0006,0.0006,0,0.047,0.0502,0.0559,0.0629,0.0707,0.0781,0.0817,0.0862,0.0899,0.0914,0.0912,0.0802,0.0746,0.0536,0.0396,0.0253,0.021,0.0146,0.0141,0.0142,0.0192,0.0234,0.0213,0,0,0,0,0,0.0485,0.0522,0.0585,0.0664,0.0739,0.079,0.087,0.0897,0.0936,0.0934,0.0925,0.0833,0.0636,0.0554,0.041,0.0369,0.0177,0.0193,0.0099,-0.0009,-0.0006,0.003,0,0,0,0,0,0,0.0496,0.0553,0.0582,0.0679,0.0736,0.0828,0.0883,0.0911,0.0909,0.0922,0.0823,0.078,0.0592,0.0719,0.0404,0.0362,0.0277,0.0106,0.0102,-0.001,-0.0008,-0.0005,0.0032,0,0,0,0,0]}]]